Wind_Speed
4 4 5 6 8 10 12 13 14 17 17 19 20 21 23 24 25 24 25 26 26 26 26 27 27 27 26 26 26 27 27 27 27 27 27 27 26 26
3 4 4 5 6 8 10 12 13 14 16 18 19 20 20 22 23 24 24 25 26 26 26 26 27 27 28 28 27 27 27 27 28 28 29 28 28 27
3 3 3 4 6 7 10 11 12 13 14 16 17 18 19 21 22 23 24 25 27 28 27 27 27 27 28 29 29 29 29 29 29 30 30 30 30 30
3 3 3 3 5 7 8 10 11 13 14 15 15 16 17 19 21 22 24 26 27 27 28 28 28 28 29 29 30 30 31 31 31 31 31 32 32 32
5 3 3 4 4 6 7 9 11 13 14 14 15 15 17 17 18 20 22 24 26 27 27 28 28 29 30 30 31 32 32 32 33 32 32 32 33 33
6 5 4 4 4 5 7 8 9 11 13 14 15 15 16 17 18 20 21 22 24 25 26 28 28 28 29 30 31 31 32 32 33 33 33 33 33 33
7 6 5 4 4 5 6 7 9 11 13 14 15 16 16 16 17 18 19 21 22 24 25 27 27 28 29 30 31 32 32 33 34 34 34 34 34 34
7 7 6 5 5 5 6 7 8 9 11 13 14 15 15 16 17 17 19 20 21 23 25 25 26 26 27 28 30 32 33 33 33 34 33 34 34 34
8 8 7 6 7 6 7 8 9 9 10 12 14 14 15 16 17 18 18 19 21 22 23 24 25 25 27 29 29 30 31 32 32 33 34 34 35 35
9 8 8 7 7 7 8 9 10 10 11 12 14 14 15 16 17 17 18 18 20 21 22 24 24 25 26 27 28 29 29 29 30 31 32 33 33 34
10 9 9 9 9 9 9 10 11 11 12 13 14 15 16 16 17 18 19 19 20 21 22 23 24 25 25 25 27 28 29 29 30 30 31 32 33 33
11 11 11 10 10 10 10 11 11 12 13 14 15 16 17 17 18 18 18 19 20 21 22 22 23 24 26 26 26 27 28 29 30 32 32 33 34 34
13 13 12 12 12 12 12 12 13 13 14 15 16 17 18 19 19 19 20 20 21 21 22 23 23 24 24 26 27 28 28 29 30 31 32 33 34 35
16 15 14 14 14 14 14 14 14 15 15 16 16 17 18 19 20 21 22 22 23 23 23 23 24 25 25 26 27 28 29 29 30 32 32 33 35 35
18 18 17 17 16 16 16 16 17 17 17 17 18 18 19 20 20 22 23 23 24 24 24 24 25 26 27 28 28 29 30 31 31 32 33 34 34 35
21 20 20 19 19 18 18 18 18 18 18 19 19 20 20 21 22 23 23 24 25 25 25 26 26 27 28 29 30 31 31 32 33 33 34 35 36 36
24 24 23 22 21 21 21 21 21 21 21 21 21 21 22 23 23 24 24 24 25 26 27 27 28 29 30 30 31 32 33 33 34 35 35 36 37 37
27 26 25 25 24 24 23 23 23 23 23 23 23 23 23 24 24 24 25 26 26 27 28 29 29 30 30 30 31 31 32 33 34 35 35 36 37 38
29 28 27 27 26 26 25 25 25 25 25 25 25 25 25 25 26 26 26 27 28 28 29 30 30 30 31 31 32 33 34 34 35 36 37 38 39 40
32 31 29 29 28 28 28 27 27 27 27 27 27 27 27 27 27 27 28 28 29 29 29 30 30 31 32 33 33 34 35 35 36 37 38 39 39 40
34 33 32 31 31 30 30 30 29 29 29 28 28 28 29 29 29 29 29 29 30 30 31 31 31 32 33 33 34 35 36 37 37 38 39 39 40 41
36 35 34 33 33 32 32 32 31 31 31 30 30 30 30 30 30 30 30 30 30 31 31 32 32 32 33 34 35 36 37 38 39 39 40 41 41 41
37 36 35 35 35 34 34 34 33 32 32 32 32 32 31 31 31 31 31 31 32 32 32 33 33 34 34 35 36 37 38 38 39 40 40 41 42 42
Wind_Direction
283 271 255 243 233 229 225 224 224 220 219 221 224 221 220 222 221 221 224 226 228 230 233 235 237 239 241 241 242 243 244 247 249 250 252 254 256 259
288 276 262 243 237 234 227 225 222 221 222 225 226 222 224 224 224 225 228 230 230 231 235 236 238 241 243 243 243 245 247 249 251 252 254 255 257 259
309 286 277 253 242 236 232 230 226 223 223 225 228 228 228 228 229 231 232 233 234 235 237 238 240 242 244 245 245 246 248 249 251 253 255 256 258 260
327 294 290 271 248 238 237 234 230 226 226 226 227 227 229 230 232 233 235 236 236 237 239 240 242 243 244 245 247 249 250 252 253 255 256 257 259 260
340 325 302 283 259 246 242 238 234 229 229 230 230 230 230 233 235 236 239 240 239 238 241 243 245 246 246 247 248 250 252 253 254 255 257 259 259 260
345 332 313 291 268 250 246 242 237 234 233 235 237 237 239 238 239 241 242 243 243 243 244 244 246 248 249 249 250 252 253 254 254 256 258 259 260 261
341 336 321 303 279 257 247 244 241 240 238 239 240 241 245 245 245 245 246 245 245 246 247 248 248 250 251 252 253 254 255 256 256 256 258 259 261 262
332 329 317 303 290 275 259 250 247 244 241 240 241 242 245 247 248 249 250 248 249 249 251 251 251 251 252 254 254 255 256 257 257 256 257 259 261 262
323 319 310 303 292 280 265 257 254 254 250 246 246 246 248 251 253 254 255 254 255 255 256 257 256 256 258 259 257 257 256 256 258 257 257 259 261 262
317 314 308 301 294 285 272 263 259 259 258 255 253 253 255 257 258 259 258 260 261 258 259 260 260 260 262 262 260 259 259 260 261 261 261 262 263 264
312 308 303 298 293 287 279 272 268 266 264 262 260 259 261 262 262 262 262 263 264 263 264 263 262 263 263 262 261 259 260 261 262 264 264 264 266 266
302 302 299 295 291 287 282 278 273 270 266 264 264 264 265 266 266 265 265 265 265 265 266 266 265 264 263 264 265 264 263 263 264 265 265 265 265 267
292 293 293 290 288 285 281 278 275 273 270 269 269 267 267 268 267 266 267 267 267 268 268 267 266 266 266 266 266 267 266 266 267 267 267 266 267 268
286 286 285 285 283 281 280 279 276 275 273 272 272 270 270 268 267 267 267 268 268 269 269 267 267 268 267 268 267 268 269 269 269 269 268 269 269 269
281 282 281 281 280 280 278 278 279 276 274 273 273 272 272 271 269 268 268 269 269 269 269 269 269 269 269 269 268 269 270 270 271 271 271 271 271 272
277 278 278 279 279 278 277 276 276 276 275 276 275 275 274 273 273 273 272 271 270 270 270 270 271 271 272 272 271 270 271 272 272 273 273 273 273 274
273 274 275 276 277 278 277 276 276 276 275 275 276 275 275 275 274 275 275 274 274 273 272 272 272 273 273 273 273 272 273 273 273 274 275 275 276 276
271 272 273 274 275 275 276 276 276 277 277 276 276 276 277 278 277 276 275 275 275 274 273 273 274 275 276 275 275 275 275 274 274 275 274 275 276 276
269 270 271 273 273 273 274 275 276 277 277 277 276 276 276 278 278 277 277 276 276 276 275 274 274 275 276 277 277 276 276 276 277 277 277 277 277 278
268 268 269 270 271 271 272 273 274 276 276 277 277 277 277 277 278 278 278 278 277 278 278 277 277 277 278 279 279 279 278 278 279 279 280 280 280 280
266 267 267 268 269 270 271 271 273 274 275 277 277 278 278 278 278 279 279 278 278 278 278 279 279 279 279 280 280 280 280 280 281 281 282 282 282 282
265 265 265 266 267 268 270 271 272 273 275 276 277 277 278 278 278 278 278 278 278 278 278 279 280 281 282 282 282 283 283 283 283 283 283 283 283 283
265 264 264 264 265 266 268 270 272 273 273 274 275 276 278 278 278 278 278 278 279 279 280 281 282 283 284 284 284 284 284 284 285 285 285 285 286 285
Height
5770 5771 5771 5772 5773 5774 5776 5779 5782 5784 5787 5790 5793 5796 5800 5803 5807 5810 5814 5817 5821 5824 5827 5830 5832 5835 5837 5839 5842 5844 5847 5849 5851 5852 5854 5856 5857 5858
5769 5770 5770 5770 5771 5773 5775 5777 5779 5782 5784 5787 5790 5793 5796 5799 5802 5806 5809 5812 5815 5819 5821 5824 5826 5829 5831 5833 5836 5838 5840 5842 5844 5846 5848 5849 5850 5851
5769 5769 5769 5769 5770 5772 5773 5775 5777 5779 5782 5784 5786 5789 5792 5795 5798 5801 5804 5807 5810 5813 5815 5818 5820 5823 5825 5827 5829 5832 5834 5836 5837 5839 5840 5842 5843 5844
5769 5769 5769 5769 5769 5770 5772 5773 5775 5777 5779 5781 5783 5786 5788 5791 5793 5796 5799 5801 5804 5806 5809 5811 5814 5816 5818 5820 5823 5825 5827 5828 5830 5831 5833 5834 5836 5836
5769 5768 5768 5768 5768 5769 5770 5771 5773 5775 5776 5778 5780 5782 5785 5787 5789 5791 5793 5795 5797 5800 5802 5805 5807 5809 5811 5813 5815 5817 5819 5821 5822 5823 5825 5826 5827 5828
5769 5768 5767 5767 5767 5768 5769 5770 5771 5772 5774 5776 5778 5779 5781 5783 5785 5787 5788 5790 5792 5794 5796 5798 5800 5802 5803 5806 5807 5809 5811 5812 5814 5815 5816 5818 5819 5820
5768 5767 5767 5766 5766 5766 5767 5768 5769 5770 5771 5773 5774 5776 5777 5779 5781 5782 5783 5785 5786 5788 5789 5791 5793 5794 5796 5798 5799 5801 5802 5804 5805 5806 5808 5809 5810 5811
5768 5767 5766 5765 5765 5765 5765 5766 5767 5768 5768 5770 5771 5772 5773 5775 5776 5777 5779 5780 5781 5782 5783 5785 5786 5787 5788 5790 5791 5792 5794 5795 5796 5797 5799 5800 5801 5802
5766 5765 5765 5764 5764 5763 5763 5764 5764 5765 5766 5767 5767 5768 5769 5771 5772 5773 5773 5774 5775 5776 5777 5778 5779 5780 5781 5782 5783 5784 5785 5786 5787 5788 5789 5790 5791 5792
5765 5764 5763 5762 5762 5761 5761 5761 5761 5762 5762 5763 5764 5765 5765 5766 5767 5768 5768 5769 5769 5770 5770 5771 5772 5773 5773 5774 5775 5776 5777 5778 5779 5779 5780 5781 5781 5782
5763 5762 5761 5760 5759 5759 5759 5758 5759 5759 5759 5759 5760 5760 5761 5761 5762 5762 5763 5763 5764 5764 5764 5765 5765 5766 5766 5767 5767 5768 5769 5770 5770 5771 5771 5772 5772 5773
5761 5759 5758 5757 5757 5756 5755 5755 5755 5755 5755 5755 5755 5756 5756 5756 5756 5757 5757 5757 5758 5758 5758 5759 5759 5759 5760 5760 5760 5761 5761 5762 5762 5762 5763 5763 5763 5763
5757 5756 5755 5754 5753 5753 5752 5752 5751 5751 5751 5751 5750 5750 5751 5751 5751 5751 5751 5751 5752 5752 5752 5752 5752 5752 5752 5753 5752 5753 5753 5753 5753 5753 5753 5753 5754 5754
5753 5752 5751 5750 5750 5749 5748 5748 5747 5747 5746 5746 5746 5745 5745 5745 5745 5745 5745 5745 5745 5745 5745 5745 5745 5745 5745 5745 5745 5744 5744 5744 5744 5744 5744 5744 5744 5743
5748 5747 5746 5745 5745 5744 5743 5743 5742 5742 5741 5741 5740 5740 5740 5739 5739 5739 5739 5738 5738 5738 5738 5737 5738 5737 5737 5737 5737 5736 5736 5735 5735 5735 5735 5734 5734 5733
5741 5741 5740 5740 5739 5738 5738 5737 5736 5736 5735 5735 5734 5734 5734 5733 5733 5732 5732 5731 5731 5731 5730 5730 5730 5729 5729 5728 5728 5727 5727 5726 5726 5725 5725 5724 5724 5723
5734 5734 5733 5733 5733 5732 5731 5730 5730 5729 5729 5728 5728 5727 5727 5726 5726 5725 5724 5724 5723 5722 5722 5722 5721 5720 5720 5720 5719 5718 5718 5717 5716 5715 5715 5714 5713 5712
5726 5726 5726 5726 5725 5725 5724 5723 5723 5722 5721 5721 5720 5720 5719 5718 5718 5717 5716 5716 5715 5714 5714 5713 5712 5712 5711 5710 5710 5708 5708 5707 5706 5705 5704 5703 5702 5700
5717 5717 5717 5717 5717 5716 5716 5715 5715 5714 5713 5713 5712 5712 5711 5710 5710 5709 5708 5707 5706 5706 5705 5704 5703 5702 5701 5700 5699 5698 5697 5696 5695 5694 5693 5692 5691 5689
5707 5707 5708 5708 5707 5707 5706 5706 5706 5705 5705 5704 5704 5703 5702 5702 5701 5700 5699 5698 5697 5696 5695 5694 5693 5692 5691 5690 5689 5687 5686 5685 5684 5682 5681 5679 5678 5676
5696 5697 5697 5697 5697 5697 5697 5697 5696 5696 5696 5695 5694 5694 5693 5692 5691 5690 5690 5689 5688 5687 5686 5685 5683 5682 5681 5680 5678 5677 5675 5673 5671 5670 5668 5667 5665 5663
5684 5685 5686 5686 5686 5686 5686 5686 5686 5686 5686 5685 5685 5684 5683 5682 5681 5681 5680 5679 5678 5677 5675 5674 5673 5671 5670 5669 5667 5665 5663 5661 5659 5657 5655 5653 5651 5650
5672 5673 5674 5674 5675 5675 5675 5675 5675 5675 5675 5675 5674 5674 5673 5672 5671 5670 5669 5668 5667 5666 5665 5663 5662 5660 5659 5657 5655 5653 5651 5648 5646 5644 5642 5639 5637 5635